User: anonymous   Login
Location: Asheville, NC
(35.6000°N, 82.5500°W)
Time: 13:01:14
(UTC-05:00)
Language:

ITUPSAT 1 - Orbit

View from above orbital plane
View from above orbital plane
View from above satellite
View from above satellite

Ground track
Ground track

The orbit data is extracted from the following two-line orbital elements,

1 35935U 09051E   18016.92771883 +.00000065 +00000-0 +25975-4 0  9994
2 35935 098.5372 166.3590 0007441 328.8695 031.2060 14.55403122441297
Epoch (UTC): 16 January 2018 22:15:54
Eccentricity: 0.0007441
inclination: 98.5372°
perigee height: 703 km
apogee height: 713 km
right ascension of ascending node: 166.3590°
argument of perigee: 328.8695°
revolutions per day: 14.55403122
mean anomaly at epoch: 31.2060°
orbit number at epoch: 44129

The dashed part of the orbit path shows where the satellite is in the earth's shadow,  

DLR